Weather in Norsup

Vanuatu     16°04′36″S   167°23′53″E
temp.,
°C
wind,
m/s
gust,
m/s
humid.,
%
clouds,
%
prec.,
mm/h
press.,
hPa
HPBL,
m
13 june, sun
sun1323:00+26ese78688 0.1 10161142
02:00+26ese6867100 0.0 10151025
05:00+26ese577220 0.1 1015883
08:00+26ese57757 0.1 1016784
11:00+27ene77719 0.4 10151051
14:00+27e67745 0.2 1013855
17:00+27e78755 0.4 1013862
20:00+27ese67745 0.2 1015889
14 june, mon
mon1423:00+26ese66745 0.2 1014856
02:00+26se557310 0.0 1013797
05:00+26se56747 0.0 1012727
08:00+26ese567527 0.0 1014689
11:00+26ese567622 0.0 1013766
14:00+27e567710 0.1 1011727
17:00+27e677910 0.3 1011727
20:00+27e778053 0.3 1013728
15 june, tue
tue1523:00+27e788082 1.0 1013648
02:00+27ne66778 0.8 1012842
05:00+27e668174 0.9 1013692
08:00+27e668136 0.2 1015720
11:00+27e568141 0.3 1014704
14:00+27e558078 0.1 1012644
17:00+27e668199 0.1 1012655
20:00+27e678293 0.1 1015707
16 june, wed
wed1623:00+27e668213 0.2 1015640
02:00+27se558225 0.4 1014547
05:00+27ese568192 0.5 1014648
08:00+27ese567914 0.0 1016706
11:00+27ese457997 0.0 1015612
14:00+27ese567945 0.1 1012630
17:00+27e678120 0.4 1013623
20:00+27se568143 1.1 1015603
17 june, thu
thu1723:00+27se668254 1.3 1014639
02:00+26se668290 0.4 1013612
05:00+26se7782100 0.4 1013670
08:00+26se668199 0.2 1015691
11:00+27ese568073 0.3 1014671
14:00+27se6679100 0.1 1012661
17:00+27se668093 0.1 1012693
20:00+27se668042 0.2 1014704